When you browse on this site, cookies collect data to enhance your experience and personalize the content and advertising you see.
Visit our Privacy Policy to learn more. By continuing to use the site, you agree to this use of cookies and data.
  • In France
  • List of Countries
  • For 7 days
  • Water Temperature
  • Satellite Maps
  • Weather Map
  • Weather Widgets
  • user-avatar
    Login

    Hourly Weather La-Plata

    Today, 16 January, Wednesday

    Time Temperature Precipitation Wind Pressure Humidity
    00:00 +20°C° 0 mm 3 mps 755 mmHg 91%
    01:00 +20°C° 0 mm 3 mps 755 mmHg 92%
    02:00 +19°C° 0 mm 3 mps 754 mmHg 95%
    03:00 +19°C° 0 mm 3 mps 754 mmHg 94%
    04:00 +19°C° 0 mm 3 mps 755 mmHg 94%
    05:00 +18°C° 0 mm 3 mps 755 mmHg 94%
    06:00 +20°C° 0 mm 3 mps 755 mmHg 87%
    07:00 +21°C° 0 mm 2 mps 755 mmHg 79%
    08:00 +24°C° 0 mm 3 mps 755 mmHg 77%
    09:00 +26°C° 0 mm 2 mps 755 mmHg 65%
    10:00 +28°C° 0 mm 2 mps 755 mmHg 54%
    11:00 +30°C° 0 mm 1 mps 756 mmHg 42%
    12:00 +31°C° 0 mm 2 mps 755 mmHg 39%
    13:00 +34°C° 0 mm 2 mps 755 mmHg 35%
    14:00 +35°C° 0 mm 2 mps 755 mmHg 31%
    15:00 +34°C° 0 mm 2 mps 755 mmHg 32%
    16:00 +34°C° 0 mm 2 mps 755 mmHg 33%
    17:00 +34°C° 0 mm 3 mps 754 mmHg 34%
    18:00 +31°C° 0 mm 3 mps 755 mmHg 39%
    19:00 +29°C° 0 mm 3 mps 755 mmHg 44%
    20:00 +27°C° 0 mm 3 mps 756 mmHg 49%
    21:00 +27°C° 0 mm 3 mps 757 mmHg 51%
    22:00 +26°C° 0 mm 3 mps 757 mmHg 52%
    23:00 +25°C° 0 mm 2 mps 758 mmHg 54%

    Tomorrow, 17 January, Thursday

    Time Temperature Precipitation Wind Pressure Humidity
    00:00 +23°C° 0 mm 4 mps 759 mmHg 59%
    01:00 +22°C° 0 mm 6 mps 759 mmHg 63%
    02:00 +21°C° 0 mm 8 mps 759 mmHg 68%
    03:00 +20°C° 0 mm 8 mps 760 mmHg 70%
    04:00 +18°C° 0 mm 7 mps 760 mmHg 73%
    05:00 +17°C° 0 mm 7 mps 761 mmHg 75%
    06:00 +18°C° 0 mm 7 mps 762 mmHg 73%
    07:00 +20°C° 0 mm 7 mps 762 mmHg 72%
    08:00 +20°C° 0 mm 7 mps 763 mmHg 70%
    09:00 +21°C° 0 mm 7 mps 763 mmHg 62%
    10:00 +23°C° 0 mm 6 mps 764 mmHg 54%
    11:00 +24°C° 0 mm 6 mps 764 mmHg 47%
    12:00 +26°C° 0 mm 6 mps 764 mmHg 44%
    13:00 +27°C° 0 mm 6 mps 763 mmHg 42%
    14:00 +28°C° 0 mm 6 mps 763 mmHg 40%
    15:00 +27°C° 0 mm 7 mps 763 mmHg 43%
    16:00 +26°C° 0 mm 8 mps 764 mmHg 46%
    17:00 +24°C° 0 mm 8 mps 764 mmHg 49%
    18:00 +22°C° 0 mm 8 mps 764 mmHg 53%
    19:00 +21°C° 0 mm 7 mps 765 mmHg 58%
    20:00 +18°C° 0 mm 7 mps 765 mmHg 62%
    21:00 +18°C° 0 mm 7 mps 765 mmHg 63%
    22:00 +18°C° 0 mm 7 mps 766 mmHg 64%
    23:00 +19°C° 0 mm 6 mps 766 mmHg 66%

    Day after tomorrow, 18 January, Friday

    Time Temperature Precipitation Wind Pressure Humidity
    00:00 +19°C° 0 mm 6 mps 766 mmHg 65%
    01:00 +17°C° 0 mm 6 mps 766 mmHg 65%
    02:00 +17°C° 0 mm 5 mps 765 mmHg 64%
    03:00 +17°C° 0 mm 5 mps 765 mmHg 64%
    04:00 +17°C° 0 mm 5 mps 765 mmHg 64%
    05:00 +16°C° 0 mm 5 mps 766 mmHg 65%
    06:00 +17°C° 0 mm 5 mps 766 mmHg 64%
    07:00 +19°C° 0 mm 4 mps 766 mmHg 64%
    08:00 +20°C° 0 mm 4 mps 766 mmHg 64%
    09:00 +21°C° 0.1 mm 4 mps 766 mmHg 61%
    10:00 +23°C° 0.1 mm 5 mps 766 mmHg 58%
    11:00 +25°C° 0.1 mm 5 mps 766 mmHg 55%
    12:00 +26°C° 0.1 mm 5 mps 765 mmHg 54%
    13:00 +26°C° 0.1 mm 6 mps 764 mmHg 53%
    14:00 +27°C° 0.1 mm 6 mps 764 mmHg 52%
    15:00 +26°C° 0 mm 6 mps 763 mmHg 54%
    16:00 +26°C° 0 mm 6 mps 763 mmHg 56%
    17:00 +26°C° 0 mm 7 mps 763 mmHg 58%
    18:00 +24°C° 0 mm 6 mps 763 mmHg 63%
    19:00 +22°C° 0 mm 6 mps 763 mmHg 68%
    20:00 +21°C° 0 mm 6 mps 764 mmHg 74%
    21:00 +21°C° 0 mm 6 mps 764 mmHg 75%
    22:00 +21°C° 0 mm 6 mps 764 mmHg 76%
    23:00 +20°C° 0 mm 6 mps 765 mmHg 77%

    19 January, Saturday

    Time Temperature Precipitation Wind Pressure Humidity
    00:00 +20°C° 0 mm 5 mps 765 mmHg 77%
    01:00 +20°C° 0 mm 5 mps 764 mmHg 78%
    02:00 +20°C° 0 mm 5 mps 764 mmHg 78%
    03:00 +20°C° 0 mm 4 mps 764 mmHg 78%
    04:00 +19°C° 0 mm 4 mps 764 mmHg 79%
    05:00 +19°C° 0 mm 4 mps 764 mmHg 79%
    06:00 +21°C° 0 mm 4 mps 765 mmHg 73%
    07:00 +22°C° 0 mm 4 mps 765 mmHg 68%
    08:00 +23°C° 0 mm 5 mps 765 mmHg 62%
    09:00 +25°C° 0 mm 5 mps 765 mmHg 58%
    10:00 +26°C° 0 mm 5 mps 765 mmHg 54%
    11:00 +27°C° 0 mm 5 mps 764 mmHg 49%
    12:00 +28°C° 0 mm 5 mps 764 mmHg 47%
    13:00 +28°C° 0 mm 5 mps 763 mmHg 44%
    14:00 +29°C° 0 mm 5 mps 763 mmHg 41%
    15:00 +28°C° 0 mm 5 mps 762 mmHg 44%
    16:00 +28°C° 0 mm 6 mps 762 mmHg 46%
    17:00 +27°C° 0 mm 6 mps 762 mmHg 48%
    18:00 +26°C° 0 mm 6 mps 762 mmHg 56%
    19:00 +23°C° 0 mm 6 mps 762 mmHg 64%
    20:00 +22°C° 0 mm 6 mps 762 mmHg 72%
    21:00 +22°C° 0 mm 6 mps 762 mmHg 71%
    22:00 +23°C° 0 mm 6 mps 763 mmHg 70%
    23:00 +23°C° 0 mm 7 mps 763 mmHg 70%

    20 January, Sunday

    Time Temperature Precipitation Wind Pressure Humidity
    00:00 +22°C° 0 mm 6 mps 763 mmHg 71%
    01:00 +22°C° 0 mm 6 mps 763 mmHg 73%
    02:00 +21°C° 0 mm 5 mps 763 mmHg 75%
    03:00 +21°C° 0 mm 5 mps 763 mmHg 76%
    04:00 +20°C° 0 mm 4 mps 763 mmHg 76%
    05:00 +20°C° 0 mm 4 mps 762 mmHg 77%
    06:00 +21°C° 0 mm 4 mps 763 mmHg 72%
    07:00 +22°C° 0 mm 4 mps 763 mmHg 68%
    08:00 +25°C° 0 mm 5 mps 763 mmHg 63%
    09:00 +26°C° 0 mm 5 mps 762 mmHg 58%
    10:00 +27°C° 0 mm 5 mps 762 mmHg 52%
    11:00 +28°C° 0 mm 4 mps 761 mmHg 47%
    12:00 +29°C° 0 mm 4 mps 760 mmHg 45%
    13:00 +30°C° 0 mm 4 mps 760 mmHg 44%
    14:00 +30°C° 0 mm 4 mps 759 mmHg 42%
    15:00 +30°C° 0 mm 4 mps 758 mmHg 45%
    16:00 +30°C° 0 mm 4 mps 758 mmHg 48%
    17:00 +29°C° 0 mm 5 mps 758 mmHg 51%
    18:00 +28°C° 0 mm 5 mps 758 mmHg 58%
    19:00 +27°C° 0 mm 4 mps 758 mmHg 65%
    20:00 +26°C° 0 mm 4 mps 758 mmHg 72%
    21:00 +25°C° 0 mm 5 mps 758 mmHg 74%
    22:00 +24°C° 0 mm 6 mps 758 mmHg 76%
    23:00 +24°C° 0 mm 6 mps 758 mmHg 78%

    21 January, Monday

    Time Temperature Precipitation Wind Pressure Humidity
    00:00 +24°C° 0 mm 6 mps 758 mmHg 80%
    01:00 +23°C° 0 mm 5 mps 758 mmHg 82%
    02:00 +23°C° 0 mm 5 mps 757 mmHg 84%
    03:00 +22°C° 0 mm 4 mps 757 mmHg 85%
    04:00 +22°C° 0 mm 4 mps 757 mmHg 86%
    05:00 +22°C° 0 mm 3 mps 757 mmHg 87%
    06:00 +24°C° 0 mm 3 mps 757 mmHg 83%
    07:00 +25°C° 0 mm 3 mps 757 mmHg 79%
    08:00 +26°C° 0 mm 3 mps 757 mmHg 75%
    09:00 +27°C° 0 mm 2 mps 757 mmHg 68%
    10:00 +29°C° 0 mm 2 mps 757 mmHg 62%
    11:00 +31°C° 0 mm 1 mps 757 mmHg 55%
    12:00 +32°C° 0 mm 2 mps 756 mmHg 52%
    13:00 +34°C° 0 mm 2 mps 755 mmHg 48%
    14:00 +35°C° 0 mm 2 mps 755 mmHg 44%
    15:00 +34°C° 0 mm 3 mps 755 mmHg 46%
    16:00 +34°C° 0 mm 3 mps 754 mmHg 47%
    17:00 +33°C° 0 mm 4 mps 754 mmHg 49%
    18:00 +30°C° 0 mm 4 mps 754 mmHg 57%
    19:00 +29°C° 0 mm 4 mps 755 mmHg 64%
    20:00 +27°C° 0 mm 4 mps 755 mmHg 72%
    21:00 +27°C° 0 mm 4 mps 755 mmHg 72%
    22:00 +27°C° 0 mm 4 mps 755 mmHg 73%
    23:00 +27°C° 0 mm 4 mps 756 mmHg 73%
    Show more